Location: Laterina
(43.5167°N, 11.7167°E)
Time: 13:48:34
(UTC+00:00)

Cosmos 2026 Rocket - Pass Details

Date: 18 January 2021
Orbit: 940 x 1000 km, 82.9° (Epoch: 28 February)

Event Time Altitude Azimuth Distance (km) Brightness Sun altitude
Rises 18:43:06 0° 187° (S) 3,593 7.1 -28.1°
Reaches altitude 10° 18:45:34 10° 188° (S) 2,656 6.4 -28.5°
Maximum altitude 18:51:39 86° 277° (W) 961 3.8 -29.6°
Enters shadow 18:52:13 75° 354° (N) 991 3.9 -29.7°
